Torna al catalogo

ASTEX 1

AttivoScienzaPO
NORAD 5560·PAYLOAD·🇺🇸 United States

Lanciato Oct 17, 1971 da Vandenberg Space Force Base

Loading…

Prossimi Passaggi (prossime 24 ore)

TLE

AggiornatoSource: Space-Track

Epoca: Sep 14, 2026, 14:13 UTC

1 05560U 71089A   26257.59303574  .00000362  00000-0  91721-4 0  9994
2 05560  92.7100 212.6828 0016134 158.0894 202.1005 14.50910586889695

Traccia ASTEX 1 in tempo reale con AllMySat

Download on the App Store